Regional Weather Roundup
Issued by NWS Pendleton, OR

Current Version | Previous Version | Text Only | Print | Product List | Glossary On
Versions: 1 2 3 4 5 6 7 8 9 10 11 12 13 14 15 16 17 18 19 20 21 22 23 24 25 26 27 28 29 30 31 32 33 34 35 36 37 38 39 40 41 42 43 44 45 46 47 48 49 50
081
ASUS46 KPDT 221010
RWRPDT
PENDLETON REGIONAL WEATHER ROUNDUP
NATIONAL WEATHER SERVICE PENDLETON OREGON
200 AM PST WED NOV 22 2017

NOTE: FAIR INDICATES FEW OR NO CLOUDS BELOW 12,000 FEET WITH NO
SIGNIFICANT WEATHER AND/OR OBSTRUCTIONS TO VISIBILITY.

# INDICATES UNOFFICIAL STATION AND DATA

WAZ520-221110-
EAST SLOPES OF WASHINGTON CASCADES

CITY            SKY/WX      TMP DP  RH  WIND    PRES   REMARKS
#BULLFROG       N/A         35  N/A N/A CALM    N/A
#CLE ELUM HS    N/A         36  34  92  CALM    30.01F
#CLE ELUM LAKE  N/A         36  35  96  CALM    30.10F
#EASTON DOT     N/A         34  34  100 CALM    N/A
#GLENWOOD       N/A         41  40  96  CALM    30.11S
#NELSON 3SW     N/A         33  32  96  CALM    30.31F
#NILE           N/A         37  36  96  CALM    29.36F
#TEANAWAY 4NE   N/A         36  36  100 CALM    N/A
#TROUT LAKE 1NE N/A         42  41  96  CALM    30.10S
#TROUT LAKE 1E  N/A         42  41  96  CALM    30.10F
$$

WAZ521-221110-
SIMCOE HIGHLANDS

CITY            SKY/WX      TMP DP  RH  WIND    PRES   REMARKS
#BICKLETON HS   N/A         N/A N/A N/A CALM    30.04F
#CENTERVILLE 1SWN/A         40  35  82  CALM    30.08S
#GOLDENDALE 4W  N/A         42  39  89  CALM    30.10F
#GOODNOE HILLS  N/A         42  42  100 CALM    N/A
#LYLE 6NE       N/A         41  40  96  CALM    30.11S
#PITT 4SE       N/A         44  43  96  CALM    30.14S
$$

WAZ026-221110-
KITTITAS VALLEY

CITY            SKY/WX      TMP DP  RH  WIND    PRES   REMARKS
ELLENSBURG AP   MOCLDY      38  36  92  CALM    30.07R FOG
#ELLENSBURG CWU N/A         37  36  96  CALM    30.06S
#ELLENSBURG 3NE N/A         36  35  96  CALM    28.14S
#ELLENSBURG 1E  N/A         37  36  96  CALM    30.16F
#KITTITAS 3S    N/A         37  36  96  CALM    30.10S
#MANASTASH RDG  N/A         39  39  100 S5      N/A
#RYEGRASS DOT   N/A         35  34  96  W10     N/A
$$

WAZ027-221110-
YAKIMA VALLEY

CITY            SKY/WX      TMP DP  RH  WIND    PRES   REMARKS
SUNNYSIDE AP    CLOUDY      40  40  100 W5      30.10R FOG
YAKIMA AIRPORT  PTCLDY      42  40  93  CALM    30.09R FOG
YAKIMA-VAGABOND MOCLDY      39  38  96  CALM    30.06S FOG
#DONALD 2NE     N/A         41  36  82  W3      28.92F
#GRANDVIEW      N/A         41  39  93  CALM    30.05S
#MABTON         N/A         42  41  96  CALM    30.09R
#MOXEE 2E       N/A         42  N/A N/A S3      29.99R
#NACHES 2SW     N/A         39  38  96  CALM    30.07R
#OUTLOOK DOT    N/A         41  41  100 CALM    30.06R
#PARKER DOT     N/A         41  39  93  CALM    30.08R
#TERRACE HTS    N/A         40  39  96  CALM    30.08F
#TOPPENISH      N/A         41  40  96  CALM    30.02F
#I82 S UMTANUM RN/A         38  37  96  CALM    N/A
#UNION GAP DOT  N/A         40  40  100 NE1     30.12S
#W YAKIMA       N/A         39  38  96  CALM    30.12R
#WHITE SWAN 5E  N/A         41  40  96  CALM    30.11F
#WILEY CITY 3W  N/A         39  35  85  CALM    30.03F
#ZILLAH DOT     N/A         41  N/A N/A NW2     N/A
$$

WAZ028-221110-
LOWER COLUMBIA BASIN...WASHINGTON

CITY            SKY/WX      TMP DP  RH  WIND    PRES   REMARKS
PASCO           CLOUDY      44  43  96  SE5     30.10F FOG
PROSSER AWOS    N/A         43  43  100 SW5     30.12R
RICHLAND AWOS   CLOUDY      45  43  93  CALM    30.11S
#BENTON CITY    N/A         42  40  93  CALM    30.01S
#CONNELL 5N     N/A         40  39  96  E1      30.12R
#CONNELL 5NW    N/A         41  20  43  CALM    30.07R
#ELTOPIA 6NW    N/A         41  40  96  CALM    29.05S
#KAHLOTUS       N/A         41  40  96  CALM    30.12S
#KENNEWICK 3S   N/A         43  41  93  SE1     30.11F
#PATERSON       N/A         43  42  96  CALM    30.10S
#PROSSER DOT    N/A         43  42  96  SW3     30.11R
#SAGEMOOR 2W    N/A         41  40  96  CALM    29.98S
#TOUCHET 2S     N/A         42  41  96  CALM    30.11S
#WEST PASCO     N/A         44  43  96  CALM    30.10S
$$

WAZ029-221110-
FOOTHILLS OF THE BLUES...WASHINGTON

CITY            SKY/WX      TMP DP  RH  WIND    PRES   REMARKS
WALLA WALLA AP  LGT RAIN    46  44  93  N3      30.08F
#CLYDE 6NW      N/A         42  41  96  CALM    30.10F
#DAYTON SCHOOL  N/A         44  39  82  CALM    30.09F
#DELANEY DOT    N/A         44  42  93  S2      30.12F
#LOWDEN 2SE     N/A         43  42  96  CALM    30.07F
#PLEASANT VIEW 1N/A         42  41  96  S6      30.14F
#PRESCOTT       N/A         44  42  93  CALM    30.11F
#WHITMAN COLLEGEN/A         44  43  96  CALM    30.16F
#WAITSBURG 5S   N/A         49  48  96  CALM    30.21F
#WAITSBURG 6SSE N/A         58  53  83  SE6     30.08F
#WAITSBURG 8N   N/A         50  N/A N/A S5      30.09S
#WALLA WALLA 5E N/A         51  49  93  SW1     N/A
#WHITMAN MISSIONN/A         43  41  93  CALM    30.13F
$$

WAZ030-221110-
BLUE MOUNTAINS...WASHINGTON

CITY            SKY/WX      TMP DP  RH  WIND    PRES   REMARKS
#DIXIE 5SE      N/A         58  49  72  S17G28  30.04S
$$

ORZ009-041-WAZ024-221110-
COLUMBIA RIVER GORGE

CITY            SKY/WX      TMP DP  RH  WIND    PRES   REMARKS
HOOD RIVER AP   CLOUDY      43  43  100 CALM    30.09F FOG
THE DALLES AP   CLOUDY      46  44  93  CALM    30.11S FOG
#ARLINGTON AIRPON/A         43  42  96  W5      30.13R
#ARLINGTON HS   N/A         45  43  93  CALM    30.03R
#CELILO DOT     N/A         45  42  89  CALM    N/A
#LYLE           N/A         46  44  93  N1      30.11F
#MARYHILL       N/A         43  N/A N/A N1      N/A
#MURDOCK        N/A         45  44  96  CALM    30.07S
#RUFUS DOT      N/A         46  N/A N/A NW7     N/A

$$

ORZ510-221110-
NORTH CENTRAL OREGON

CITY            SKY/WX      TMP DP  RH  WIND    PRES   REMARKS
#ANTELOPE       N/A         53  49  86  CALM    29.93F
#CHENOWITH 1W   N/A         42  39  89  N2      N/A
#COW CYN RST AREN/A         57  N/A N/A SW6     N/A
#DUFUR          N/A         42  41  96  CALM    30.07R
#DUFUR 9E       N/A         53  52  96  SW9     30.15R
#GRASS VALLEY 1SN/A         50  49  96  S3      30.08R
#KENT DOT       N/A         53  44  71  SW8     N/A
#MAUPIN SCHOOL  N/A         45  42  89  CALM    30.14R
#MORO SCHOOL    N/A         44  44  100 CALM    30.07R
#SHANIKO 5WSW   N/A         53  -33  2  S10     N/A
#SHANIKO 4NW    N/A         54  48  80  S10     30.09S
#TYGH VALLEY 2NEN/A         45  43  93  CALM    30.09S
#WAPANITIA AIRPON/A         44  43  96  CALM    30.12R
#WASCO DOT      N/A         43  42  96  NW2     N/A
#WASCO 5NE      N/A         42  25  51  CALM    30.10R
$$

ORZ511-221110-
CENTRAL OREGON

CITY            SKY/WX      TMP DP  RH  WIND    PRES   REMARKS
BEND AIRPORT    MOCLDY      54  48  80  SW9     30.13F
PRINEVILLE AP   MOCLDY      59  46  62  SE8     30.13F
REDMOND AIRPORT PTCLDY      56  47  72  E3      30.11S
#ASHWOOD SCHOOL N/A         62  48  60  S6      30.03S
#BEND 1SW       N/A         49  47  93  CALM    N/A
#BEND-AWBREY    N/A         54  48  80  SW6     30.06F
#BEND-KIM LN    N/A         58  48  69  S10G24  29.94F
#CULVER         N/A         60  47  62  E12     29.88R
#CULVER 8W      N/A         59  45  60  SE6     30.07F
#LAKE BILLY CHINN/A         60  N/A N/A S3      30.14S
#MADRAS 4S      N/A         62  15  16  S18     N/A
#POWELL BUTTE   N/A         61  44  53  S7      30.06S
#PRINEVILLE     N/A         56  49  77  N1      30.13F
#PRINEVILLE 3N  N/A         56  50  80  E8      30.06S
#WARM SPRINGS   N/A         47  45  93  CALM    29.92F

$$


ORZ509-221110-
EAST SLOPES OF OREGON CASCADES

CITY            SKY/WX      TMP DP  RH  WIND    PRES   REMARKS
SISTERS AWOS    N/A         55  46  72  N5      N/A
#BLUE BOX PASS  N/A         47  N/A N/A SW6     N/A
#CAMP SHERMAN   N/A         50  47  89  CALM    30.09F
#LA PINE DOT    N/A         48  44  86  CALM    N/A
#LA PINE 4NW    N/A         47  44  89  CALM    30.14S
#LAVA BUTTE DOT N/A         47  44  89  SW2     N/A
#SISTERS ODOT   N/A         54  46  74  NE2     N/A
#SISTERS 3N     N/A         52  45  77  CALM    30.09S
#SUNRIVER       N/A         50  48  93  SE2     30.11R
#TUMALO 3W      N/A         56  47  72  S12     29.91F
#WANOGA BUTTE D N/A         43  43  100 W13     N/A    WCI 36

$$

ORZ044-221110-
LOWER COLUMBIA BASIN...OREGON

CITY            SKY/WX      TMP DP  RH  WIND    PRES   REMARKS
HERMISTON       CLOUDY      44  43  96  E5      30.09F
#BOARDMAN SCHOOLN/A         44  42  93  CALM    30.10R
#BOARDMAN 8SW   N/A         44  43  96  N1      30.13R
#ECHO 8SW       N/A         43  43  100 CALM    30.10F
#I-84 EX 198 DOTN/A         44  44  100 E8      N/A
#IONE SCHOOL    N/A         44  31  60  CALM    30.13R
#UMATILLA       N/A         44  40  86  CALM    30.03F
$$

ORZ507-221110-
NORTHERN FOOTHILLS OF THE BLUES

CITY            SKY/WX      TMP DP  RH  WIND    PRES   REMARKS
PENDLETON AIRPT CLOUDY      42  42  100 S8      30.07S FOG
#ADAMS 3WNW     N/A         49  47  93  E1      30.09F
#ATHENA         N/A         57  51  80  SE6     30.13F
#CAYUSE         N/A         57  52  83  S6      30.10S
#HELIX SCHOOL   N/A         45  44  96  CALM    30.11S
#HELIX 3N       N/A         52  49  89  S13     30.05S
#HOLDMAN 5SE    N/A         46  45  96  CALM    30.07R
#HOLDMAN 6E     N/A         49  46  89  SE2     29.91S
#M-F GROVE ELEM N/A         42  40  93  CALM    30.06S
#M-FREEWATER 5SEN/A         59  54  83  E10     30.07F
#PENDLETON DNTN N/A         43  41  93  CALM    30.04F
#PDT AQUATIC CTRN/A         43  43  100 CALM    30.12S
#PDT SUNRIDGE   N/A         43  42  96  CALM    30.09F
#PENDLETON 6SE  N/A         44  42  93  NW1     30.06F
#PENDLETON 7NW  N/A         42  39  89  CALM    30.16S
#PILOT ROCK 1S  N/A         62  47  58  SE12    30.06F
#PILOT ROCK     N/A         46  45  96  CALM    30.08S
#TUTUILLA       N/A         43  41  93  CALM    30.13F
#UMAPINE 2E     N/A         43  42  96  CALM    30.07F
#WESTON SCHOOL  N/A         59  51  75  SW9     30.02S

$$

ORZ508-221110-
SOUTHERN FOOTHILLS OF THE BLUES

CITY            SKY/WX      TMP DP  RH  WIND    PRES   REMARKS
LEXINGTON       CLOUDY      45  45  100 N10     30.11R
#AJAX           N/A         51  46  83  N1      30.22R
#CONDON 5W      N/A         53  47  80  S7      30.08R
#HEPPNER EOC    N/A         61  51  70  SE7     30.02F
#HEPPNER 4NE    N/A         58  49  72  S1      30.06F
#LEXINGTON 2SE  N/A         50  45  83  NW3     30.02R
#MIKKALO        N/A         43  42  96  CALM    30.17R
#OLEX 4N        N/A         43  42  96  SE5     30.08R
#RUGGS 5NE      N/A         59  50  72  S15G26  30.23S
#RUGGS 2SW      N/A         58  50  75  SW9     30.07R

$$

ORZ502-503-221110-
BLUE MOUNTAINS

CITY            SKY/WX      TMP DP  RH  WIND    PRES   REMARKS
MEACHAM         LGT RAIN    49  48  96  CALM    30.16R FOG
#BATTLE MTN DOT N/A         49  47  93  SE12    N/A    WCI 44
#GRANITE        N/A         43  43  100 CALM    30.26S
#GREENHORN 9SW  N/A         46  46  100 NE1     30.19F
#HARDMAN 10S    N/A         48  47  96  SE3     30.24F
#LADD CYN SMT   N/A         50  48  93  SE16G24 N/A
#LADD CREEK ODOTN/A         51  48  89  S8      N/A
#LONG CREEK HS  N/A         54  50  86  SW22G31 30.16R
#N POWDER DOT   N/A         51  48  89  SW3     N/A
#PIKES PEAK     N/A         56  49  77  CALM    27.99S
#TOLLGATE       N/A         45  44  96  S7      30.02R
#TROY SCHOOL    N/A         43  42  96  CALM    30.06S
#UKIAH          N/A         51  49  93  CALM    30.06S
#WESTON 4E      N/A         53  50  89  SE9     30.07R
$$

ORZ505-221110-
JOHN DAY BASIN

CITY            SKY/WX      TMP DP  RH  WIND    PRES   REMARKS
JOHN DAY        LGT RAIN    53  51  93  E8      30.22R
#ANTELOPE 9ESE  N/A         47  45  93  CALM    N/A
#DAYVILLE SCHOOLN/A         57  49  75  E1      30.13R
#MITCHELL 8NW   N/A         57  46  67  S6      30.09S
#MONUMENT HS    N/A         49  47  93  CALM    30.09S
#MT. VERNON 5SE N/A         52  48  86  NE1     30.17R
#WINLOCK        N/A         59  57  93  CALM    30.10S
$$

ORZ506-221110-
OCHOCO AND JOHN DAY HIGHLANDS

CITY            SKY/WX      TMP DP  RH  WIND    PRES   REMARKS
#HORSE RIDGE DO N/A         55  43  64  SE13    N/A
#PAULINA ODOT   N/A         50  48  93  NE2     N/A
#PINE MTN OBS   N/A         44  42  93  S23G33  N/A    WCI 35
#PRAIRIE CITY   N/A         50  48  93  CALM    30.36F
#SENECA         N/A         48  N/A N/A S1      N/A
#SENECA 9NW     N/A         46  45  96  CALM    30.18S
$$

ORZ049-221110-
GRANDE RONDE VALLEY

CITY            SKY/WX      TMP DP  RH  WIND    PRES   REMARKS
LA GRANDE       LGT RAIN    53  49  86  S8      30.20R
#COVE SCHOOL    N/A         53  50  89  W1      30.18R
#COVE 6NW       N/A         53  50  89  S3      30.18S
#ELGIN 3N       N/A         53  49  86  S9      30.58R
#ELGIN 1E       N/A         52  47  83  CALM    N/A
#IMBLER SCHOOL  N/A         50  48  93  CALM    30.13R
#ISLAND CITY 4N N/A         57  56  96  CALM    30.01S
#LADD CYN DOT   N/A         53  51  93  S23G33  N/A
#UNION 1S       N/A         54  50  86  E7      30.18S
$$

ORZ050-221110-
WALLOWA COUNTY

CITY            SKY/WX      TMP DP  RH  WIND    PRES   REMARKS
JOSEPH AIRPORT  LGT RAIN    48  48  100 CALM    30.20R
#ENTERPRISE HS  N/A         45  43  93  CALM    30.11S
#IMNAHA SCHOOL  N/A         62  50  65  N10     30.14R
#IMNAHA 10S     N/A         58  47  67  SW5     30.15S
#JOSEPH         N/A         49  45  86  E1      30.37F
#JOSEPH 3N      N/A         44  41  89  CALM    30.19S
#JOSEPH 3W      N/A         47  47  100 CALM    30.62R
#LOSTINE        N/A         42  39  89  CALM    30.05S
#LOSTINE 3SE    N/A         43  42  96  W1      30.23S
#MT HOWARD 8000 N/A         38  36  92  SW10G25 30.27R
#PROMISE 1S     N/A         49  47  93  CALM    30.23S
#WALLOWA SCHOOL N/A         40  39  96  CALM    30.15S



$$



USA.gov is the U.S. government's official web portal to all federal, state and local government web resources and services.